Voltar ao catálogo

COSMOS 970 DEB

AtivoLEO
NORAD 14443·DEBRIS·🇷🇺 Russia

Lançado Dec 21, 1977 de Baikonur Cosmodrome

Loading…

Próximas Passagens (próximas 24 horas)

TLE

AtualizadoSource: Space-Track

Época: Sep 13, 2026, 19:45 UTC

1 14443U 77121BF  26256.82293322  .00004150  00000-0  70920-3 0  9997
2 14443  65.5743  52.6273 0081930 134.6944 226.0877 14.67867032349119

Acompanhe COSMOS 970 DEB em tempo real com AllMySat

Download on the App Store